Weather History for PABL - May, 2013

Change the Weather History Date:

Friday, May 24, 2013

  Actual Average (PASK) Record (PASK)
Temperature  
Mean Temperature 37 °F -  
Max Temperature 48 °F 43 °F 68 °F (2002)
Min Temperature 26 °F 29 °F 12 °F (2001)
Degree Days  
Heating Degree Days 28    
Moisture  
Dew Point 29 °F    
Average Humidity 72    
Maximum Humidity 93    
Minimum Humidity 50    
Precipitation  
Precipitation 0.00 in - - ()
Sea Level Pressure  
Sea Level Pressure 30.17 in    
Wind  
Wind Speed 6 mph (SE)    
Max Wind Speed 13 mph    
Max Gust Speed 18 mph    
Visibility 10 miles    
Events      
Averages and records for this station are not official NWS values.
T = Trace of Precipitation, MM = Missing Value Source: NWS Daily Summary

Daily Weather History Graph

Daily Weather History Graph

Search for Another Location

Airport or City:

Trip Planner

Search our weather history database for the weather conditions in past years. The results will help you decide how hot, cold, wet, or windy it might be!

Date:

Astronomy

May. 24, 2013 Rise Set
Actual Time 4:28 AM AKDT 12:58 AM AKDT
Civil Twilight Sun does not rise Sun does not rise
Nautical Twilight Sun does not rise Sun does not rise
Astronomical Twilight Sun does not rise Sun does not rise
Moon No Moon Rise 4:51 AM AKDT (5/24)
Length of Visible Light 24h 00m
Length of Day
20h 29m
Full, 100% of the Moon is Illuminated
May 24
Full
May 24
Full
May 31
Last Quarter
Jun 8
New
Jun 16
First Quarter

Hourly Weather History & Observations

Time (AKDT) Temp. Windchill Dew Point Humidity Pressure Visibility Wind Dir Wind Speed Gust Speed Precip Events Conditions
12:16 AM 33.8 °F 30.8 °F 28.4 °F 81% 30.21 in 10.0 mi East 3.5 mph - N/A   Clear
12:36 AM 32.0 °F - 28.4 °F 87% 30.21 in 10.0 mi Calm Calm - N/A   Partly Cloudy
12:56 AM 30.2 °F 24.3 °F 28.4 °F 93% 30.20 in 10.0 mi SSE 5.8 mph - N/A   Partly Cloudy
1:16 AM 30.2 °F 23.4 °F 26.6 °F 86% 30.21 in 10.0 mi ESE 6.9 mph - N/A   Clear
1:36 AM 30.2 °F 23.4 °F 26.6 °F 86% 30.21 in 10.0 mi SE 6.9 mph - N/A   Clear
1:56 AM 30.2 °F 23.4 °F 26.6 °F 86% 30.21 in 10.0 mi ESE 6.9 mph - N/A   Clear
2:16 AM 30.2 °F 23.4 °F 26.6 °F 86% 30.22 in 10.0 mi East 6.9 mph - N/A   Clear
2:36 AM 30.2 °F 22.6 °F 26.6 °F 86% 30.22 in 10.0 mi ESE 8.1 mph - N/A   Clear
2:56 AM 30.2 °F 22.6 °F 26.6 °F 86% 30.22 in 10.0 mi ESE 8.1 mph - N/A   Clear
3:16 AM 28.4 °F 22.2 °F 26.6 °F 93% 30.22 in 10.0 mi SE 5.8 mph - N/A   Clear
3:36 AM 28.4 °F 22.2 °F 26.6 °F 93% 30.22 in 10.0 mi East 5.8 mph - N/A   Clear
3:56 AM 28.4 °F 21.2 °F 26.6 °F 93% 30.22 in 10.0 mi East 6.9 mph - N/A   Clear
4:16 AM 28.4 °F 21.2 °F 26.6 °F 93% 30.22 in 10.0 mi SE 6.9 mph - N/A   Clear
4:36 AM 28.4 °F 23.3 °F 26.6 °F 93% 30.22 in 10.0 mi SSE 4.6 mph - N/A   Clear
4:56 AM 26.6 °F 22.6 °F 24.8 °F 93% 30.23 in 10.0 mi SE 3.5 mph - N/A   Clear
5:16 AM 26.6 °F 22.6 °F 24.8 °F 93% 30.22 in 10.0 mi SE 3.5 mph - N/A   Clear
5:36 AM 28.4 °F - 24.8 °F 86% 30.23 in 10.0 mi Calm Calm - N/A   Clear
5:56 AM 28.4 °F 24.6 °F 24.8 °F 86% 30.23 in 10.0 mi ESE 3.5 mph - N/A   Clear
6:16 AM 30.2 °F 26.7 °F 26.6 °F 86% 30.23 in 10.0 mi SE 3.5 mph - N/A   Clear
6:36 AM 30.2 °F 25.4 °F 26.6 °F 86% 30.23 in 10.0 mi ESE 4.6 mph - N/A   Clear
6:56 AM 30.2 °F 25.4 °F 26.6 °F 86% 30.23 in 10.0 mi SE 4.6 mph - N/A   Clear
7:16 AM 30.2 °F - 28.4 °F 93% 30.23 in 10.0 mi Calm Calm - N/A   Clear
7:36 AM 32.0 °F 27.5 °F 28.4 °F 87% 30.23 in 10.0 mi South 4.6 mph - N/A   Clear
7:56 AM 30.2 °F 26.7 °F 28.4 °F 93% 30.23 in 10.0 mi South 3.5 mph - N/A   Mostly Cloudy
8:16 AM 30.2 °F - 28.4 °F 93% 30.23 in 10.0 mi Calm Calm - N/A   Overcast
8:36 AM 33.8 °F 27.7 °F 28.4 °F 81% 30.23 in 10.0 mi ESE 6.9 mph - N/A   Overcast
8:56 AM 33.8 °F 27.0 °F 28.4 °F 81% 30.22 in 10.0 mi SE 8.1 mph - N/A   Overcast
9:16 AM 33.8 °F 26.4 °F 28.4 °F 81% 30.23 in 10.0 mi ESE 9.2 mph - N/A   Overcast
9:36 AM 33.8 °F 25.3 °F 28.4 °F 81% 30.22 in 10.0 mi ESE 11.5 mph - N/A   Overcast
9:56 AM 33.8 °F 25.3 °F 28.4 °F 81% 30.22 in 10.0 mi SSE 11.5 mph 18.4 mph N/A   Overcast
10:16 AM 33.8 °F 27.0 °F 28.4 °F 81% 30.22 in 10.0 mi SSE 8.1 mph - N/A   Overcast
10:36 AM 35.6 °F 27.1 °F 28.4 °F 75% 30.22 in 10.0 mi SSE 12.7 mph - N/A   Overcast
10:56 AM 35.6 °F 28.6 °F 28.4 °F 75% 30.22 in 10.0 mi ESE 9.2 mph - N/A   Overcast
11:16 AM 35.6 °F 28.0 °F 28.4 °F 75% 30.21 in 10.0 mi SE 10.4 mph - N/A   Overcast
11:36 AM 35.6 °F 29.2 °F 28.4 °F 75% 30.21 in 10.0 mi ESE 8.1 mph - N/A   Overcast
11:56 AM 37.4 °F 30.8 °F 28.4 °F 70% 30.20 in 10.0 mi ESE 9.2 mph - N/A   Mostly Cloudy
12:16 PM 37.4 °F 31.4 °F 28.4 °F 70% 30.20 in 10.0 mi ESE 8.1 mph - N/A   Scattered Clouds
12:36 PM 37.4 °F 30.3 °F 28.4 °F 70% 30.19 in 10.0 mi SE 10.4 mph - N/A   Scattered Clouds
12:56 PM 37.4 °F 30.8 °F 28.4 °F 70% 30.19 in 10.0 mi SE 9.2 mph - N/A   Partly Cloudy
1:16 PM 39.2 °F 33.0 °F 28.4 °F 65% 30.18 in 10.0 mi ESE 9.2 mph - N/A   Clear
1:36 PM 39.2 °F 33.6 °F 28.4 °F 65% 30.18 in 10.0 mi SE 8.1 mph - N/A   Clear
1:56 PM 41.0 °F 36.4 °F 30.2 °F 65% 30.17 in 10.0 mi SE 6.9 mph - N/A   Clear
2:16 PM 41.0 °F 35.2 °F 30.2 °F 65% 30.17 in 10.0 mi ESE 9.2 mph - N/A   Clear
2:36 PM 41.0 °F 35.8 °F 30.2 °F 65% 30.17 in 10.0 mi SSE 8.1 mph - N/A   Clear
2:56 PM 42.8 °F 38.0 °F 30.2 °F 61% 30.16 in 10.0 mi SE 8.1 mph - N/A   Clear
3:16 PM 42.8 °F 39.3 °F 30.2 °F 61% 30.16 in 10.0 mi SSE 5.8 mph - N/A   Clear
3:36 PM 44.6 °F 42.2 °F 30.2 °F 57% 30.16 in 10.0 mi SE 4.6 mph - N/A   Clear
3:56 PM 44.6 °F 40.7 °F 30.2 °F 57% 30.15 in 10.0 mi SSE 6.9 mph - N/A   Clear
4:16 PM 44.6 °F 40.2 °F 30.2 °F 57% 30.15 in 10.0 mi SE 8.1 mph - N/A   Clear
4:36 PM 46.4 °F 42.4 °F 30.2 °F 53% 30.14 in 10.0 mi SE 8.1 mph - N/A   Scattered Clouds
4:56 PM 46.4 °F 42.9 °F 30.2 °F 53% 30.14 in 10.0 mi SE 6.9 mph - N/A   Overcast
5:16 PM 46.4 °F 43.5 °F 30.2 °F 53% 30.13 in 10.0 mi SE 5.8 mph - N/A   Overcast
5:36 PM 46.4 °F 42.4 °F 30.2 °F 53% 30.13 in 10.0 mi ESE 8.1 mph - N/A   Overcast
5:56 PM 46.4 °F 42.9 °F 30.2 °F 53% 30.13 in 10.0 mi East 6.9 mph - N/A   Overcast
6:16 PM 48.2 °F - 32.0 °F 54% 30.12 in 10.0 mi East 6.9 mph - N/A   Overcast
6:36 PM 48.2 °F - 30.2 °F 50% 30.12 in 10.0 mi SE 5.8 mph - N/A   Overcast
6:56 PM 48.2 °F - 30.2 °F 50% 30.11 in 10.0 mi SE 5.8 mph - N/A   Overcast
7:16 PM 48.2 °F - 30.2 °F 50% 30.11 in 10.0 mi SSE 5.8 mph - N/A   Overcast
7:36 PM 48.2 °F - 30.2 °F 50% 30.10 in 10.0 mi SSE 5.8 mph - N/A   Overcast
7:56 PM 48.2 °F - 30.2 °F 50% 30.10 in 10.0 mi SSE 5.8 mph - N/A   Overcast
8:16 PM 46.4 °F 43.5 °F 30.2 °F 53% 30.10 in 10.0 mi South 5.8 mph - N/A   Overcast
8:36 PM 46.4 °F 44.3 °F 32.0 °F 57% 30.09 in 10.0 mi South 4.6 mph - N/A   Overcast
8:56 PM 46.4 °F 45.2 °F 32.0 °F 57% 30.09 in 10.0 mi South 3.5 mph - N/A   Overcast
9:16 PM 46.4 °F 44.3 °F 33.8 °F 62% 30.09 in 10.0 mi SSW 4.6 mph - N/A   Overcast
9:36 PM 46.4 °F 45.2 °F 32.0 °F 57% 30.09 in 10.0 mi SE 3.5 mph - N/A   Overcast
9:56 PM 46.4 °F 45.2 °F 32.0 °F 57% 30.08 in 10.0 mi SE 3.5 mph - N/A   Overcast
10:16 PM 46.4 °F 45.2 °F 32.0 °F 57% 30.08 in 10.0 mi ESE 3.5 mph - N/A   Overcast
10:36 PM 44.6 °F 40.7 °F 32.0 °F 61% 30.08 in 10.0 mi ESE 6.9 mph - N/A   Overcast
10:56 PM 44.6 °F - 33.8 °F 66% 30.08 in 10.0 mi Calm Calm - N/A   Overcast
11:16 PM 42.8 °F 40.1 °F 32.0 °F 66% 30.08 in 10.0 mi SE 4.6 mph - N/A   Overcast
11:36 PM 42.8 °F - 32.0 °F 66% 30.08 in 10.0 mi Calm Calm - N/A   Overcast
11:56 PM 41.0 °F - 32.0 °F 70% 30.07 in 10.0 mi Calm Calm - N/A   Overcast